GW6781 Weather Reports


time (UTC)temp
C
wind
direction
speed
KPH
gust
KPH
rain 1hr
cm
rain 24hr
cm
rain mn
cm
humidity
%
barometer
mb
20260503200059 16 204 1.6 11.3 0.00 0.00 0.00 44 1018.5
20260503195558 16 0 1.6 16.1 0.00 0.00 0.00 44 1018.6
20260503195057 16 213 3.2 16.1 0.00 0.00 0.00 47 1018.6
20260503194559 16 148 3.2 11.3 0.00 0.00 0.00 46 1018.6
20260503194058 16 140 4.8 11.3 0.00 0.00 0.00 44 1018.7
20260503193557 16 175 1.6 9.7 0.00 0.00 0.00 51 1018.8
20260503193111 16 200 0.0 11.3 0.00 0.00 0.00 46 1018.9
20260503192556 16 307 1.6 11.3 0.00 0.00 0.00 46 1019.1
20260503192057 16 175 3.2 9.7 0.00 0.00 0.00 48 1019.1
20260503191559 16 149 1.6 8.0 0.00 0.00 0.00 49 1019.2
20260503191058 16 0 0.0 6.4 0.00 0.00 0.00 50 1019.1
20260503190558 16 0 1.6 6.4 0.00 0.00 0.00 49 1019.2
20260503190107 15 98 3.2 17.7 0.00 0.00 0.00 50 1019.3
20260503185558 15 344 1.6 17.7 0.00 0.00 0.00 49 1019.3
20260503185056 15 155 4.8 14.5 0.00 0.00 0.00 50 1019.3
20260503184556 15 9 3.2 14.5 0.00 0.00 0.00 45 1019.4
20260503184057 15 200 6.4 14.5 0.00 0.00 0.00 48 1019.3
20260503183557 15 197 4.8 14.5 0.00 0.00 0.00 46 1019.4
20260503183109 15 0 3.2 14.5 0.00 0.00 0.00 50 1019.5
20260503182557 15 323 3.2 8.0 0.00 0.00 0.00 46 1019.6
20260503182057 14 74 1.6 6.4 0.00 0.00 0.00 47 1019.6
20260503181558 14 110 1.6 16.1 0.00 0.00 0.00 51 1019.7
20260503181058 13 0 3.2 16.1 0.00 0.00 0.00 51 1019.9
20260503180600 13 173 6.4 16.1 0.00 0.00 0.00 51 1019.9
20260503180100 13 194 6.4 16.1 0.00 0.00 0.00 52 1020.0
20260503175557 13 126 3.2 14.5 0.00 0.00 0.00 56 1019.8
20260503175057 13 0 4.8 14.5 0.00 0.00 0.00 52 1019.9
20260503174558 13 134 6.4 14.5 0.00 0.00 0.00 53 1019.9
20260503174102 13 178 3.2 12.9 0.00 0.00 0.00 54 1019.9
20260503173601 13 0 1.6 12.9 0.00 0.00 0.00 50 1020.2
20260503173112 13 203 6.4 14.5 0.00 0.00 0.00 52 1020.2
20260503172558 13 198 1.6 16.1 0.00 0.00 0.00 51 1020.3
20260503172100 13 139 6.4 16.1 0.00 0.00 0.00 51 1020.4
20260503171557 13 202 3.2 17.7 0.00 0.00 0.00 55 1020.7
20260503171057 13 226 1.6 17.7 0.00 0.00 0.00 55 1020.5
20260503170558 12 159 9.7 24.1 0.00 0.00 0.00 52 1020.5
20260503170106 12 206 8.0 24.1 0.00 0.00 0.00 51 1020.6
20260503150557 11 103 1.6 11.3 0.00 0.00 0.00 55 1021.6
20260503150112 11 0 1.6 12.9 0.00 0.00 0.00 54 1021.5
20260503140119 11 71 3.2 9.7 0.00 0.00 0.00 54 1021.4
20260503131057 10 30 1.6 8.0 0.00 0.00 0.00 57 1021.4
20260503130557 10 41 1.6 8.0 0.00 0.00 0.00 55 1021.5
20260503130104 10 94 1.6 6.4 0.00 0.00 0.00 60 1021.2
20260503110600 6 297 0.0 3.2 0.00 0.00 0.00 72 1020.0
20260503110107 6 297 0.0 3.2 0.00 0.00 0.00 73 1020.1
20260503100107 6 0 0.0 1.6 0.00 0.00 0.00 73 1019.3
20260503090112 6 0 0.0 0.0 0.00 0.00 0.00 74 1019.0
20260503081620 7 0 0.0 1.6 0.00 0.00 0.00 72 1018.7
20260503081057 7 0 0.0 1.6 0.00 0.00 0.00 72 1018.5
20260503080559 7 0 0.0 1.6 0.00 0.00 0.00 71 1018.7
20260503080103 7 0 0.0 1.6 0.00 0.00 0.00 71 1018.4
20260503072557 8 0 0.0 0.0 0.00 0.00 0.00 70 1018.5
20260503072100 8 0 0.0 0.0 0.00 0.00 0.00 69 1018.4
20260503071609 8 0 0.0 0.0 0.00 0.00 0.00 69 1018.4
20260503071057 8 0 0.0 0.0 0.00 0.00 0.00 69 1018.5
20260503070557 8 0 0.0 1.6 0.00 0.00 0.00 69 1018.2
20260503070104 8 0 0.0 1.6 0.00 0.00 0.00 69 1018.2
20260503060114 8 0 0.0 3.2 0.00 0.00 0.00 69 1018.0
20260503055057 8 0 0.0 3.2 0.00 0.00 0.00 69 1018.0
20260503054558 8 0 0.0 1.6 0.00 0.00 0.00 70 1017.9
20260503054057 8 0 0.0 1.6 0.00 0.00 0.00 69 1018.1
20260503053557 8 0 0.0 1.6 0.00 0.00 0.00 70 1018.0
20260503053058 8 0 0.0 3.2 0.00 0.00 0.00 70 1018.0
20260503052556 8 0 0.0 3.2 0.00 0.00 0.00 69 1017.9
20260503052058 8 0 0.0 3.2 0.00 0.00 0.00 68 1017.9
20260503051600 8 0 0.0 1.6 0.00 0.00 0.00 68 1017.8
20260503051057 8 0 0.0 1.6 0.00 0.00 0.00 68 1017.9
20260503050601 9 279 0.0 3.2 0.00 0.00 0.00 69 1017.9
20260503050059 9 0 0.0 3.2 0.00 0.00 0.00 67 1017.8
20260503045557 9 0 0.0 1.6 0.00 0.00 0.00 68 1017.8
20260503045058 9 0 0.0 3.2 0.00 0.00 0.00 68 1017.6
20260503044556 9 0 0.0 3.2 0.00 0.00 0.00 67 1017.6
20260503044101 9 0 0.0 3.2 0.00 0.00 0.00 67 1017.7
20260503043557 9 0 0.0 3.2 0.00 0.00 0.00 67 1017.8
20260503043058 9 0 0.0 3.2 0.00 0.00 0.00 68 1017.6
20260503042557 9 0 0.0 3.2 0.00 0.00 0.00 67 1017.7
20260503042057 9 0 0.0 0.0 0.00 0.00 0.00 68 1017.8
20260503041555 9 0 0.0 1.6 0.00 0.00 0.00 67 1017.7
20260503041058 9 0 0.0 1.6 0.00 0.00 0.00 67 1017.6
20260503040557 9 299 0.0 1.6 0.00 0.00 0.00 66 1017.6
20260503040059 9 0 0.0 4.8 0.00 0.00 0.00 66 1017.4
20260503035558 9 0 0.0 4.8 0.00 0.00 0.00 66 1017.5
20260503035059 9 0 0.0 6.4 0.00 0.00 0.00 65 1017.4
20260503034601 9 0 0.0 6.4 0.00 0.00 0.00 65 1017.5
20260503034057 9 272 0.0 6.4 0.00 0.00 0.00 66 1017.5
20260503033556 9 0 0.0 6.4 0.00 0.00 0.00 65 1017.4
20260503033100 9 302 0.0 4.8 0.00 0.00 0.00 66 1017.4
20260503032600 9 0 0.0 4.8 0.00 0.00 0.00 66 1017.4
20260503032057 9 296 0.0 6.4 0.00 0.00 0.00 66 1017.3
20260503031600 9 0 0.0 6.4 0.00 0.00 0.00 66 1017.4
20260503031058 9 312 1.6 4.8 0.00 0.00 0.00 66 1017.3
20260503030557 9 0 0.0 4.8 0.00 0.00 0.00 67 1017.3
20260503025559 9 5 0.0 4.8 0.00 0.00 0.00 67 1017.3
20260503025057 9 0 0.0 4.8 0.00 0.00 0.00 67 1017.3
20260503024604 9 0 1.6 8.0 0.00 0.00 0.00 66 1017.1
20260503024057 9 261 0.0 8.0 0.00 0.00 0.00 66 1017.0
20260503023557 9 330 1.6 8.0 0.00 0.00 0.00 66 1017.0
20260503023103 9 332 0.0 4.8 0.00 0.00 0.00 66 1016.9
20260503022557 9 0 0.0 3.2 0.00 0.00 0.00 66 1016.8
20260503022057 9 0 0.0 4.8 0.00 0.00 0.00 65 1017.0
20260503021604 9 298 0.0 4.8 0.00 0.00 0.00 66 1016.9
20260503021100 9 316 0.0 4.8 0.00 0.00 0.00 65 1017.1
20260503020557 9 0 0.0 4.8 0.00 0.00 0.00 65 1017.0
20260503020100 9 225 0.0 4.8 0.00 0.00 0.00 65 1016.8
20260503015559 9 0 0.0 3.2 0.00 0.00 0.00 65 1016.7
20260503015057 9 344 0.0 3.2 0.00 0.00 0.00 65 1016.7
20260503014625 9 0 0.0 3.2 0.00 0.00 0.00 64 1016.5
20260503014057 10 0 0.0 3.2 0.00 0.00 0.00 65 1016.4
20260503013557 10 0 0.0 4.8 0.00 0.00 0.00 64 1016.5
20260503013059 10 313 0.0 4.8 0.00 0.00 0.00 64 1016.4
20260503012600 10 0 0.0 3.2 0.00 0.00 0.00 63 1016.4
20260503012059 10 284 0.0 3.2 0.00 0.00 0.00 63 1016.2
20260503011613 10 0 0.0 6.4 0.00 0.00 0.00 63 1016.1
20260503011057 10 0 0.0 6.4 0.00 0.00 0.00 63 1016.1
20260503010557 10 276 0.0 4.8 0.00 0.00 0.00 62 1016.0
20260503010057 10 0 0.0 4.8 0.00 0.00 0.00 60 1015.9
20260503005557 10 0 0.0 3.2 0.00 0.00 0.00 60 1015.8
20260503005057 11 0 0.0 6.4 0.00 0.00 0.00 59 1015.8
20260503004615 11 0 0.0 6.4 0.00 0.00 0.00 59 1015.8
20260503004056 11 327 0.0 6.4 0.00 0.00 0.00 59 1015.7
20260503003556 11 0 0.0 4.8 0.00 0.00 0.00 58 1015.6
20260503003058 11 0 0.0 4.8 0.00 0.00 0.00 58 1015.6
20260503002600 11 0 0.0 4.8 0.00 0.00 0.00 58 1015.7
20260503002058 11 0 0.0 8.0 0.00 0.00 0.00 57 1015.6
20260503001557 11 303 0.0 8.0 0.00 0.00 0.00 58 1015.6
20260503001100 12 311 0.0 8.0 0.00 0.00 0.00 56 1015.5
20260503000558 12 0 0.0 8.0 0.00 0.00 0.00 57 1015.4
20260503000055 12 0 1.6 8.0 0.00 0.00 0.00 55 1015.4
20260502235557 12 261 3.2 8.0 0.00 0.00 0.00 54 1015.2
20260502235057 12 307 1.6 12.9 0.00 0.00 0.00 54 1015.2
20260502234558 12 352 1.6 12.9 0.00 0.00 0.00 54 1015.0
20260502234057 12 289 1.6 12.9 0.00 0.00 0.00 52 1015.0
20260502233556 12 332 0.0 12.9 0.00 0.00 0.00 54 1014.8
20260502233059 13 296 1.6 12.9 0.00 0.00 0.00 53 1014.8
20260502232557 13 332 3.2 11.3 0.00 0.00 0.00 52 1014.8
20260502232057 13 327 0.0 8.0 0.00 0.00 0.00 50 1014.8
20260502231558 13 309 3.2 14.5 0.00 0.00 0.00 50 1014.8
20260502231057 13 312 3.2 14.5 0.00 0.00 0.00 51 1014.7
20260502230557 13 0 0.0 11.3 0.00 0.00 0.00 55 1014.7
20260502230058 13 0 1.6 11.3 0.00 0.00 0.00 54 1014.9
20260502225557 13 332 1.6 8.0 0.00 0.00 0.00 49 1014.8
20260502225058 14 11 0.0 14.5 0.00 0.00 0.00 50 1014.9
20260502224609 14 77 3.2 14.5 0.00 0.00 0.00 48 1014.7
20260502224057 14 36 3.2 12.9 0.00 0.00 0.00 49 1014.6
20260502223557 15 352 3.2 12.9 0.00 0.00 0.00 47 1014.6
20260502223055 15 340 4.8 12.9 0.00 0.00 0.00 45 1014.5
20260502222558 15 350 1.6 12.9 0.00 0.00 0.00 44 1014.6
20260502222055 15 344 3.2 12.9 0.00 0.00 0.00 48 1014.4
20260502221556 15 329 3.2 8.0 0.00 0.00 0.00 46 1014.4
20260502221055 15 12 1.6 11.3 0.00 0.00 0.00 47 1014.3
20260502220558 15 246 1.6 11.3 0.00 0.00 0.00 47 1014.3
20260502220056 15 0 1.6 6.4 0.00 0.00 0.00 50 1014.3
20260502215558 15 0 1.6 17.7 0.00 0.00 0.00 47 1014.3
20260502215102 14 335 3.2 17.7 0.00 0.00 0.00 49 1014.1
20260502214558 15 323 6.4 17.7 0.00 0.00 0.00 46 1014.1
20260502214058 15 0 1.6 16.1 0.00 0.00 0.00 45 1014.3
20260502213600 15 0 6.4 16.1 0.00 0.00 0.00 46 1014.1
20260502213123 16 294 1.6 11.3 0.00 0.00 0.00 45 1014.0
20260502212556 15 5 1.6 8.0 0.00 0.00 0.00 46 1014.1
20260502212059 15 0 0.0 9.7 0.00 0.00 0.00 44 1014.2
20260502211632 15 314 4.8 14.5 0.00 0.00 0.00 43 1014.2
20260502211057 15 75 1.6 17.7 0.00 0.00 0.00 48 1014.0
20260502210558 15 150 4.8 17.7 0.00 0.00 0.00 43 1013.9
20260502210109 15 360 4.8 17.7 0.00 0.00 0.00 43 1014.0
20260502205555 15 311 3.2 17.7 0.00 0.00 0.00 43 1014.0
20260502205058 15 312 4.8 17.7 0.00 0.00 0.00 45 1014.0
20260502204557 15 315 4.8 14.5 0.00 0.00 0.00 47 1014.0
20260502204058 15 346 1.6 17.7 0.00 0.00 0.00 46 1013.9
20260502203555 15 324 4.8 17.7 0.00 0.00 0.00 43 1014.0
20260502203101 15 327 4.8 16.1 0.00 0.00 0.00 39 1013.9
20260502202558 16 312 0.0 16.1 0.00 0.00 0.00 42 1014.0
20260502202056 15 24 4.8 16.1 0.00 0.00 0.00 40 1014.0
20260502201600 16 347 1.6 6.4 0.00 0.00 0.00 40 1014.1
20260502201055 16 233 0.0 11.3 0.00 0.00 0.00 45 1014.2
20260502200558 16 159 1.6 20.9 0.00 0.00 0.00 44 1014.2